Time,TemperatureF,DewpointF,PressureIn,WindDirection,WindDirectionDegrees,WindSpeedMPH,WindSpeedGustMPH,Humidity,HourlyPrecipIn,Conditions,Clouds,dailyrainin,SoftwareType,DateUTC
2016-07-30 00:05:00,70.7,67.3,29.90,WSW,253,0.0,0.0,89,0.00,,,0.00,Wunderground v.1.15,2016-07-30 05:05:00,
2016-07-30 00:10:00,70.7,67.6,29.90,WSW,254,0.0,0.0,90,0.00,,,0.00,Wunderground v.1.15,2016-07-30 05:10:00,
2016-07-30 00:16:00,70.4,67.3,29.89,WSW,253,0.0,0.0,90,0.00,,,0.00,Wunderground v.1.15,2016-07-30 05:16:00,
2016-07-30 00:22:00,70.3,67.2,29.89,WSW,253,0.0,0.0,90,0.00,,,0.00,Wunderground v.1.15,2016-07-30 05:22:00,
2016-07-30 00:27:00,70.3,67.2,29.89,WSW,252,0.0,0.0,90,0.00,,,0.00,Wunderground v.1.15,2016-07-30 05:27:00,
2016-07-30 00:33:00,70.1,67.0,29.89,WSW,254,0.0,0.0,90,0.00,,,0.00,Wunderground v.1.15,2016-07-30 05:33:00,
2016-07-30 00:39:00,70.0,66.9,29.89,WSW,255,0.0,0.0,90,0.00,,,0.00,Wunderground v.1.15,2016-07-30 05:39:00,
2016-07-30 00:45:00,70.0,66.9,29.89,WSW,253,0.0,0.0,90,0.00,,,0.00,Wunderground v.1.15,2016-07-30 05:45:00,
2016-07-30 00:51:00,69.7,66.6,29.89,WSW,254,0.0,0.0,90,0.00,,,0.00,Wunderground v.1.15,2016-07-30 05:51:00,
2016-07-30 00:57:00,69.6,66.9,29.89,WSW,254,0.0,0.0,91,0.00,,,0.00,Wunderground v.1.15,2016-07-30 05:57:00,
2016-07-30 01:03:00,69.5,66.8,29.89,WSW,255,0.0,0.0,91,0.00,,,0.00,Wunderground v.1.15,2016-07-30 06:03:00,
2016-07-30 01:09:00,69.3,66.6,29.89,WSW,253,0.0,0.0,91,0.00,,,0.00,Wunderground v.1.15,2016-07-30 06:09:00,
2016-07-30 01:15:00,69.5,66.8,29.90,WSW,254,0.0,0.0,91,0.00,,,0.00,Wunderground v.1.15,2016-07-30 06:15:00,
2016-07-30 01:21:00,69.4,66.7,29.90,WSW,254,0.0,0.0,91,0.00,,,0.00,Wunderground v.1.15,2016-07-30 06:21:00,
2016-07-30 01:26:00,69.2,66.5,29.90,WSW,256,0.0,0.0,91,0.00,,,0.00,Wunderground v.1.15,2016-07-30 06:26:00,
2016-07-30 01:31:00,69.1,66.4,29.90,WSW,254,0.0,0.0,91,0.00,,,0.00,Wunderground v.1.15,2016-07-30 06:31:00,
2016-07-30 01:37:00,69.0,66.3,29.90,WSW,252,0.0,0.0,91,0.00,,,0.00,Wunderground v.1.15,2016-07-30 06:37:00,
2016-07-30 01:43:00,68.9,66.2,29.90,WSW,253,0.0,0.0,91,0.00,,,0.00,Wunderground v.1.15,2016-07-30 06:43:00,
2016-07-30 01:49:00,68.8,66.1,29.90,WSW,256,0.0,0.0,91,0.00,,,0.00,Wunderground v.1.15,2016-07-30 06:49:00,
2016-07-30 01:55:00,68.8,66.4,29.90,WSW,256,0.0,0.0,92,0.00,,,0.00,Wunderground v.1.15,2016-07-30 06:55:00,
2016-07-30 02:01:00,68.7,66.3,29.90,WSW,253,0.0,0.0,92,0.00,,,0.00,Wunderground v.1.15,2016-07-30 07:01:00,
2016-07-30 02:07:00,68.6,66.2,29.90,WSW,253,0.0,0.0,92,0.00,,,0.00,Wunderground v.1.15,2016-07-30 07:07:00,
2016-07-30 02:13:00,68.6,66.2,29.90,WSW,254,0.0,0.0,92,0.00,,,0.00,Wunderground v.1.15,2016-07-30 07:13:00,
2016-07-30 02:18:00,68.5,66.1,29.90,WSW,254,0.0,0.0,92,0.00,,,0.00,Wunderground v.1.15,2016-07-30 07:18:00,
2016-07-30 02:24:00,68.4,66.0,29.90,WSW,254,0.0,0.0,92,0.00,,,0.00,Wunderground v.1.15,2016-07-30 07:24:00,
2016-07-30 02:30:00,68.4,66.0,29.90,WSW,255,0.0,0.0,92,0.00,,,0.00,Wunderground v.1.15,2016-07-30 07:30:00,
2016-07-30 02:36:00,68.2,65.8,29.91,WSW,255,0.0,0.0,92,0.00,,,0.00,Wunderground v.1.15,2016-07-30 07:36:00,
2016-07-30 02:42:00,68.1,65.7,29.91,WSW,254,0.0,0.0,92,0.00,,,0.00,Wunderground v.1.15,2016-07-30 07:42:00,
2016-07-30 02:48:00,68.3,66.2,29.91,WSW,254,0.0,0.0,93,0.00,,,0.00,Wunderground v.1.15,2016-07-30 07:48:00,
2016-07-30 02:54:00,68.2,65.8,29.91,WSW,255,0.0,0.0,92,0.00,,,0.00,Wunderground v.1.15,2016-07-30 07:54:00,
2016-07-30 02:59:00,68.1,66.0,29.90,WSW,255,0.0,2.0,93,0.00,,,0.00,Wunderground v.1.15,2016-07-30 07:59:00,
2016-07-30 03:05:00,68.0,65.9,29.90,WSW,250,0.0,1.0,93,0.00,,,0.00,Wunderground v.1.15,2016-07-30 08:05:00,
2016-07-30 03:11:00,68.1,66.0,29.90,WSW,258,0.0,0.0,93,0.00,,,0.00,Wunderground v.1.15,2016-07-30 08:11:00,
2016-07-30 03:17:00,67.8,65.4,29.90,WSW,252,0.0,0.0,92,0.00,,,0.00,Wunderground v.1.15,2016-07-30 08:17:00,
2016-07-30 03:23:00,67.7,65.6,29.90,WSW,253,1.0,2.0,93,0.00,,,0.00,Wunderground v.1.15,2016-07-30 08:23:00,
2016-07-30 03:28:00,67.9,65.8,29.90,WSW,253,1.0,4.0,93,0.00,,,0.00,Wunderground v.1.15,2016-07-30 08:28:00,
2016-07-30 03:34:00,68.1,66.0,29.90,WSW,254,0.0,1.0,93,0.00,,,0.00,Wunderground v.1.15,2016-07-30 08:34:00,
2016-07-30 03:40:00,68.1,66.0,29.90,WSW,253,0.0,3.0,93,0.00,,,0.00,Wunderground v.1.15,2016-07-30 08:40:00,
2016-07-30 03:46:00,68.0,65.9,29.90,WSW,254,0.0,0.0,93,0.00,,,0.00,Wunderground v.1.15,2016-07-30 08:46:00,
2016-07-30 03:52:00,67.9,65.8,29.90,WSW,254,1.0,3.0,93,0.00,,,0.00,Wunderground v.1.15,2016-07-30 08:52:00,
2016-07-30 03:58:00,67.9,65.8,29.90,WSW,256,1.0,3.0,93,0.00,,,0.00,Wunderground v.1.15,2016-07-30 08:58:00,
2016-07-30 04:04:00,67.7,65.3,29.90,WSW,250,0.0,3.0,92,0.00,,,0.00,Wunderground v.1.15,2016-07-30 09:04:00,
2016-07-30 04:10:00,67.7,65.6,29.90,WSW,252,1.0,3.0,93,0.00,,,0.00,Wunderground v.1.15,2016-07-30 09:10:00,
2016-07-30 04:16:00,67.6,65.5,29.90,WSW,256,1.0,3.0,93,0.00,,,0.00,Wunderground v.1.15,2016-07-30 09:16:00,
2016-07-30 04:22:00,67.6,65.2,29.90,WSW,254,0.0,0.0,92,0.00,,,0.00,Wunderground v.1.15,2016-07-30 09:22:00,
2016-07-30 04:27:00,67.5,65.1,29.90,WSW,255,0.0,2.0,92,0.00,,,0.00,Wunderground v.1.15,2016-07-30 09:27:00,
2016-07-30 04:33:00,67.4,65.0,29.90,WSW,254,0.0,1.0,92,0.00,,,0.00,Wunderground v.1.15,2016-07-30 09:33:00,
2016-07-30 04:39:00,67.4,65.0,29.90,WSW,253,0.0,1.0,92,0.00,,,0.00,Wunderground v.1.15,2016-07-30 09:39:00,
2016-07-30 04:45:00,67.4,65.0,29.90,WSW,251,0.0,0.0,92,0.00,,,0.00,Wunderground v.1.15,2016-07-30 09:45:00,
2016-07-30 04:51:00,67.2,64.8,29.90,WSW,254,0.0,0.0,92,0.00,,,0.00,Wunderground v.1.15,2016-07-30 09:51:00,
2016-07-30 04:57:00,67.0,64.6,29.90,WSW,252,0.0,0.0,92,0.00,,,0.00,Wunderground v.1.15,2016-07-30 09:57:00,
2016-07-30 05:03:00,66.9,64.5,29.91,WSW,253,0.0,0.0,92,0.00,,,0.00,Wunderground v.1.15,2016-07-30 10:03:00,
2016-07-30 05:08:00,66.9,64.5,29.90,WSW,258,0.0,0.0,92,0.00,,,0.00,Wunderground v.1.15,2016-07-30 10:08:00,
2016-07-30 05:14:00,67.0,64.6,29.91,WSW,254,0.0,0.0,92,0.00,,,0.00,Wunderground v.1.15,2016-07-30 10:14:00,
2016-07-30 05:19:00,66.9,64.5,29.91,WSW,254,0.0,0.0,92,0.00,,,0.00,Wunderground v.1.15,2016-07-30 10:19:00,
2016-07-30 05:25:00,66.8,64.4,29.91,WSW,254,0.0,0.0,92,0.00,,,0.00,Wunderground v.1.15,2016-07-30 10:25:00,
2016-07-30 05:30:00,66.7,64.6,29.91,WSW,254,0.0,0.0,93,0.00,,,0.00,Wunderground v.1.15,2016-07-30 10:30:00,
2016-07-30 05:36:00,66.7,64.6,29.91,WSW,250,0.0,0.0,93,0.00,,,0.00,Wunderground v.1.15,2016-07-30 10:36:00,
2016-07-30 05:42:00,66.8,64.7,29.91,WSW,254,0.0,0.0,93,0.00,,,0.00,Wunderground v.1.15,2016-07-30 10:42:00,
2016-07-30 05:48:00,66.7,64.6,29.92,WSW,254,0.0,0.0,93,0.00,,,0.00,Wunderground v.1.15,2016-07-30 10:48:00,
2016-07-30 05:54:00,66.7,64.6,29.92,WSW,255,0.0,0.0,93,0.00,,,0.00,Wunderground v.1.15,2016-07-30 10:54:00,
2016-07-30 06:00:00,66.7,64.6,29.92,WSW,254,0.0,0.0,93,0.00,,,0.00,Wunderground v.1.15,2016-07-30 11:00:00,
2016-07-30 06:05:00,66.5,64.4,29.92,WSW,255,0.0,2.0,93,0.00,,,0.00,Wunderground v.1.15,2016-07-30 11:05:00,
2016-07-30 06:11:00,66.5,64.4,29.92,WSW,255,0.0,0.0,93,0.00,,,0.00,Wunderground v.1.15,2016-07-30 11:11:00,
2016-07-30 06:17:00,66.5,64.4,29.92,WSW,250,0.0,0.0,93,0.00,,,0.00,Wunderground v.1.15,2016-07-30 11:17:00,
2016-07-30 06:23:00,66.6,64.5,29.92,WSW,254,0.0,0.0,93,0.00,,,0.00,Wunderground v.1.15,2016-07-30 11:23:00,
2016-07-30 06:29:00,66.7,64.6,29.93,WSW,252,0.0,0.0,93,0.00,,,0.00,Wunderground v.1.15,2016-07-30 11:29:00,
2016-07-30 06:35:00,66.8,64.7,29.93,WSW,252,0.0,0.0,93,0.00,,,0.00,Wunderground v.1.15,2016-07-30 11:35:00,
2016-07-30 06:41:00,67.2,65.1,29.93,WSW,253,0.0,0.0,93,0.00,,,0.00,Wunderground v.1.15,2016-07-30 11:41:00,
2016-07-30 06:46:00,67.3,65.2,29.93,WSW,254,0.0,0.0,93,0.00,,,0.00,Wunderground v.1.15,2016-07-30 11:46:00,
2016-07-30 06:52:00,67.4,65.3,29.93,WSW,252,0.0,0.0,93,0.00,,,0.00,Wunderground v.1.15,2016-07-30 11:52:00,
2016-07-30 06:58:00,67.4,65.3,29.93,WSW,252,0.0,0.0,93,0.00,,,0.00,Wunderground v.1.15,2016-07-30 11:58:00,
2016-07-30 07:04:00,67.6,65.5,29.93,WSW,255,0.0,1.0,93,0.00,,,0.00,Wunderground v.1.15,2016-07-30 12:04:00,
2016-07-30 07:09:00,67.7,65.6,29.93,WSW,253,0.0,2.0,93,0.00,,,0.00,Wunderground v.1.15,2016-07-30 12:09:00,
2016-07-30 07:15:00,67.9,65.8,29.93,WSW,254,1.0,2.0,93,0.00,,,0.00,Wunderground v.1.15,2016-07-30 12:15:00,
2016-07-30 07:21:00,68.2,66.1,29.94,WSW,254,1.0,3.0,93,0.00,,,0.00,Wunderground v.1.15,2016-07-30 12:21:00,
2016-07-30 07:27:00,68.6,66.5,29.93,WSW,253,1.0,3.0,93,0.00,,,0.00,Wunderground v.1.15,2016-07-30 12:27:00,
2016-07-30 07:33:00,69.0,66.9,29.94,WSW,256,1.0,1.0,93,0.00,,,0.00,Wunderground v.1.15,2016-07-30 12:33:00,
2016-07-30 07:39:00,69.5,67.1,29.94,WSW,254,1.0,4.0,92,0.00,,,0.00,Wunderground v.1.15,2016-07-30 12:39:00,
2016-07-30 07:45:00,69.7,67.3,29.94,WSW,254,2.0,3.0,92,0.00,,,0.00,Wunderground v.1.15,2016-07-30 12:45:00,
2016-07-30 07:51:00,70.0,67.6,29.94,WSW,253,2.0,2.0,92,0.00,,,0.00,Wunderground v.1.15,2016-07-30 12:51:00,
2016-07-30 07:57:00,70.4,68.0,29.94,WSW,250,1.0,2.0,92,0.00,,,0.00,Wunderground v.1.15,2016-07-30 12:57:00,
2016-07-30 08:02:00,70.8,68.4,29.94,WSW,253,0.0,0.0,92,0.00,,,0.00,Wunderground v.1.15,2016-07-30 13:02:00,
2016-07-30 08:08:00,71.2,68.4,29.94,WSW,254,1.0,5.0,91,0.00,,,0.00,Wunderground v.1.15,2016-07-30 13:08:00,
2016-07-30 08:14:00,71.8,69.0,29.94,WSW,253,2.0,5.0,91,0.00,,,0.00,Wunderground v.1.15,2016-07-30 13:14:00,
2016-07-30 08:20:00,72.1,69.0,29.94,WSW,256,2.0,5.0,90,0.00,,,0.00,Wunderground v.1.15,2016-07-30 13:20:00,
2016-07-30 08:26:00,72.0,68.9,29.94,WSW,255,3.0,4.0,90,0.00,,,0.00,Wunderground v.1.15,2016-07-30 13:26:00,
2016-07-30 08:32:00,72.8,69.4,29.94,WSW,253,1.0,4.0,89,0.00,,,0.00,Wunderground v.1.15,2016-07-30 13:32:00,
2016-07-30 08:37:00,72.4,68.6,29.94,WSW,257,2.0,5.0,88,0.00,,,0.00,Wunderground v.1.15,2016-07-30 13:37:00,
2016-07-30 08:42:00,72.5,68.7,29.95,WSW,253,2.0,5.0,88,0.00,,,0.00,Wunderground v.1.15,2016-07-30 13:42:00,
2016-07-30 08:48:00,73.0,69.2,29.94,WSW,253,2.0,5.0,88,0.00,,,0.00,Wunderground v.1.15,2016-07-30 13:48:00,
2016-07-30 08:54:00,73.8,70.0,29.94,WSW,254,1.0,2.0,88,0.00,,,0.00,Wunderground v.1.15,2016-07-30 13:54:00,
2016-07-30 08:59:00,73.8,69.7,29.94,WSW,255,0.0,2.0,87,0.00,,,0.00,Wunderground v.1.15,2016-07-30 13:59:00,
2016-07-30 09:05:00,74.1,69.6,29.94,WSW,251,2.0,5.0,86,0.00,,,0.00,Wunderground v.1.15,2016-07-30 14:05:00,
2016-07-30 09:11:00,74.6,69.4,29.95,WSW,255,3.0,3.0,84,0.00,,,0.00,Wunderground v.1.15,2016-07-30 14:11:00,
2016-07-30 09:17:00,74.5,69.3,29.94,WSW,253,3.0,4.0,84,0.00,,,0.00,Wunderground v.1.15,2016-07-30 14:17:00,
2016-07-30 09:23:00,74.9,69.7,29.94,WSW,254,2.0,5.0,84,0.00,,,0.00,Wunderground v.1.15,2016-07-30 14:23:00,
2016-07-30 09:29:00,75.4,69.5,29.95,WSW,255,3.0,8.0,82,0.00,,,0.00,Wunderground v.1.15,2016-07-30 14:29:00,
2016-07-30 09:35:00,75.6,69.4,29.95,WSW,254,4.0,9.0,81,0.00,,,0.00,Wunderground v.1.15,2016-07-30 14:35:00,
2016-07-30 09:40:00,75.8,69.6,29.95,WSW,255,3.0,3.0,81,0.00,,,0.00,Wunderground v.1.15,2016-07-30 14:40:00,
2016-07-30 09:46:00,76.3,69.7,29.95,WSW,254,2.0,4.0,80,0.00,,,0.00,Wunderground v.1.15,2016-07-30 14:46:00,
2016-07-30 09:52:00,75.8,68.4,29.95,WSW,254,3.0,7.0,78,0.00,,,0.00,Wunderground v.1.15,2016-07-30 14:52:00,
2016-07-30 09:58:00,75.8,69.2,29.95,WSW,253,5.0,8.0,80,0.00,,,0.00,Wunderground v.1.15,2016-07-30 14:58:00,
2016-07-30 10:03:00,75.8,69.2,29.95,WSW,254,4.0,5.0,80,0.00,,,0.00,Wunderground v.1.15,2016-07-30 15:03:00,
2016-07-30 10:09:00,76.6,70.3,29.95,WSW,255,2.0,5.0,81,0.00,,,0.00,Wunderground v.1.15,2016-07-30 15:09:00,
2016-07-30 10:15:00,76.8,70.2,29.95,WSW,252,1.0,2.0,80,0.00,,,0.00,Wunderground v.1.15,2016-07-30 15:15:00,
2016-07-30 10:21:00,76.1,69.8,29.95,WSW,254,1.0,3.0,81,0.00,,,0.00,Wunderground v.1.15,2016-07-30 15:21:00,
2016-07-30 10:27:00,75.5,69.6,29.95,WSW,254,2.0,4.0,82,0.00,,,0.00,Wunderground v.1.15,2016-07-30 15:27:00,
2016-07-30 10:33:00,75.5,69.6,29.95,WSW,254,3.0,5.0,82,0.00,,,0.00,Wunderground v.1.15,2016-07-30 15:33:00,
2016-07-30 10:39:00,75.2,69.0,29.95,WSW,254,3.0,5.0,81,0.00,,,0.00,Wunderground v.1.15,2016-07-30 15:39:00,
2016-07-30 10:45:00,75.5,69.3,29.95,WSW,258,2.0,5.0,81,0.00,,,0.00,Wunderground v.1.15,2016-07-30 15:45:00,
2016-07-30 10:51:00,76.0,69.0,29.95,WSW,257,3.0,7.0,79,0.00,,,0.00,Wunderground v.1.15,2016-07-30 15:51:00,
2016-07-30 10:57:00,76.9,69.9,29.96,WSW,254,4.0,7.0,79,0.00,,,0.00,Wunderground v.1.15,2016-07-30 15:57:00,
2016-07-30 11:03:00,76.8,68.7,29.96,WSW,254,4.0,10.0,76,0.00,,,0.00,Wunderground v.1.15,2016-07-30 16:03:00,
2016-07-30 11:09:00,76.3,68.9,29.96,WSW,256,6.0,10.0,78,0.00,,,0.00,Wunderground v.1.15,2016-07-30 16:09:00,
2016-07-30 11:15:00,76.5,68.7,29.96,West,260,5.0,13.0,77,0.00,,,0.00,Wunderground v.1.15,2016-07-30 16:15:00,
2016-07-30 11:21:00,76.4,68.3,29.96,WSW,257,6.0,7.0,76,0.00,,,0.00,Wunderground v.1.15,2016-07-30 16:21:00,
2016-07-30 11:27:00,76.2,68.8,29.96,WSW,244,6.0,11.0,78,0.00,,,0.00,Wunderground v.1.15,2016-07-30 16:27:00,
2016-07-30 11:33:00,76.9,69.1,29.96,WSW,248,5.0,13.0,77,0.00,,,0.00,Wunderground v.1.15,2016-07-30 16:33:00,
2016-07-30 11:39:00,77.4,68.5,29.96,WSW,252,5.0,13.0,74,0.00,,,0.00,Wunderground v.1.15,2016-07-30 16:39:00,
2016-07-30 11:45:00,77.2,69.0,29.97,WSW,251,4.0,7.0,76,0.00,,,0.00,Wunderground v.1.15,2016-07-30 16:45:00,
2016-07-30 11:51:00,76.9,68.4,29.96,WSW,252,5.0,5.0,75,0.00,,,0.00,Wunderground v.1.15,2016-07-30 16:51:00,
2016-07-30 11:57:00,76.9,68.4,29.96,WSW,252,5.0,8.0,75,0.00,,,0.00,Wunderground v.1.15,2016-07-30 16:57:00,
2016-07-30 12:03:00,77.5,69.3,29.96,WSW,252,4.0,7.0,76,0.00,,,0.00,Wunderground v.1.15,2016-07-30 17:03:00,
2016-07-30 12:09:00,77.9,69.3,29.96,WSW,251,5.0,9.0,75,0.00,,,0.00,Wunderground v.1.15,2016-07-30 17:09:00,
2016-07-30 12:15:00,78.5,69.5,29.96,WSW,253,5.0,8.0,74,0.00,,,0.00,Wunderground v.1.15,2016-07-30 17:15:00,
2016-07-30 12:21:00,78.4,68.6,29.96,WSW,254,4.0,4.0,72,0.00,,,0.00,Wunderground v.1.15,2016-07-30 17:21:00,
2016-07-30 12:26:00,78.4,68.6,29.96,WSW,253,5.0,7.0,72,0.00,,,0.00,Wunderground v.1.15,2016-07-30 17:26:00,
2016-07-30 12:32:00,77.9,68.9,29.95,WSW,254,5.0,7.0,74,0.00,,,0.00,Wunderground v.1.15,2016-07-30 17:32:00,
2016-07-30 12:38:00,77.7,68.0,29.96,WSW,256,6.0,12.0,72,0.00,,,0.00,Wunderground v.1.15,2016-07-30 17:38:00,
2016-07-30 12:44:00,78.2,69.6,29.96,WSW,256,5.0,5.0,75,0.00,,,0.00,Wunderground v.1.15,2016-07-30 17:44:00,
2016-07-30 12:50:00,78.9,69.1,29.96,WSW,257,4.0,5.0,72,0.00,,,0.00,Wunderground v.1.15,2016-07-30 17:50:00,
2016-07-30 12:56:00,78.6,68.4,29.96,WSW,246,5.0,8.0,71,0.00,,,0.00,Wunderground v.1.15,2016-07-30 17:56:00,
2016-07-30 13:01:00,78.6,69.6,29.96,WSW,239,5.0,6.0,74,0.00,,,0.00,Wunderground v.1.15,2016-07-30 18:01:00,
2016-07-30 13:07:00,79.2,69.0,29.95,SW,230,5.0,6.0,71,0.00,,,0.00,Wunderground v.1.15,2016-07-30 18:07:00,
2016-07-30 13:13:00,79.1,68.5,29.95,SW,233,5.0,7.0,70,0.00,,,0.00,Wunderground v.1.15,2016-07-30 18:13:00,
2016-07-30 13:19:00,79.2,67.7,29.95,SW,232,5.0,7.0,68,0.00,,,0.00,Wunderground v.1.15,2016-07-30 18:19:00,
2016-07-30 13:25:00,79.7,69.9,29.95,SW,233,4.0,7.0,72,0.00,,,0.00,Wunderground v.1.15,2016-07-30 18:25:00,
2016-07-30 13:31:00,79.8,69.1,29.95,WSW,246,4.0,4.0,70,0.00,,,0.00,Wunderground v.1.15,2016-07-30 18:31:00,
2016-07-30 13:37:00,80.2,68.7,29.95,WSW,248,5.0,11.0,68,0.00,,,0.00,Wunderground v.1.15,2016-07-30 18:37:00,
2016-07-30 13:43:00,80.5,68.5,29.95,WSW,246,4.0,8.0,67,0.00,,,0.00,Wunderground v.1.15,2016-07-30 18:43:00,
2016-07-30 13:49:00,80.5,67.6,29.95,WSW,250,5.0,12.0,65,0.00,,,0.00,Wunderground v.1.15,2016-07-30 18:49:00,
2016-07-30 13:55:00,80.7,68.3,29.95,WSW,248,4.0,8.0,66,0.00,,,0.00,Wunderground v.1.15,2016-07-30 18:55:00,
2016-07-30 14:01:00,80.8,68.4,29.95,WSW,244,4.0,4.0,66,0.00,,,0.00,Wunderground v.1.15,2016-07-30 19:01:00,
2016-07-30 14:07:00,80.6,68.2,29.95,WSW,248,5.0,14.0,66,0.00,,,0.00,Wunderground v.1.15,2016-07-30 19:07:00,
2016-07-30 14:13:00,80.7,67.8,29.95,WSW,247,5.0,5.0,65,0.00,,,0.00,Wunderground v.1.15,2016-07-30 19:13:00,
2016-07-30 14:19:00,81.0,67.7,29.95,WSW,248,4.0,11.0,64,0.00,,,0.00,Wunderground v.1.15,2016-07-30 19:19:00,
2016-07-30 14:25:00,80.8,67.9,29.95,WSW,254,5.0,8.0,65,0.00,,,0.00,Wunderground v.1.15,2016-07-30 19:25:00,
2016-07-30 14:31:00,81.3,68.4,29.94,WSW,246,3.0,4.0,65,0.00,,,0.00,Wunderground v.1.15,2016-07-30 19:31:00,
2016-07-30 14:36:00,81.4,68.5,29.94,WSW,247,3.0,5.0,65,0.00,,,0.00,Wunderground v.1.15,2016-07-30 19:36:00,
2016-07-30 14:42:00,81.9,69.4,29.94,WSW,250,3.0,3.0,66,0.00,,,0.00,Wunderground v.1.15,2016-07-30 19:42:00,
2016-07-30 14:48:00,82.6,69.2,29.94,WSW,256,3.0,10.0,64,0.00,,,0.00,Wunderground v.1.15,2016-07-30 19:48:00,
2016-07-30 14:54:00,82.9,69.5,29.94,WSW,256,3.0,4.0,64,0.00,,,0.00,Wunderground v.1.15,2016-07-30 19:54:00,
2016-07-30 15:00:00,82.1,67.8,29.94,WSW,255,3.0,4.0,62,0.00,,,0.00,Wunderground v.1.15,2016-07-30 20:00:00,
2016-07-30 15:06:00,82.3,68.9,29.93,WSW,255,2.0,4.0,64,0.00,,,0.00,Wunderground v.1.15,2016-07-30 20:06:00,
2016-07-30 15:12:00,83.0,69.1,29.93,WSW,258,3.0,3.0,63,0.00,,,0.00,Wunderground v.1.15,2016-07-30 20:12:00,
2016-07-30 15:18:00,82.8,68.9,29.93,WSW,256,3.0,4.0,63,0.00,,,0.00,Wunderground v.1.15,2016-07-30 20:18:00,
2016-07-30 15:24:00,83.2,69.3,29.93,WSW,254,3.0,4.0,63,0.00,,,0.00,Wunderground v.1.15,2016-07-30 20:24:00,
2016-07-30 15:30:00,82.7,68.4,29.93,WSW,256,3.0,7.0,62,0.00,,,0.00,Wunderground v.1.15,2016-07-30 20:30:00,
2016-07-30 15:35:00,82.8,68.9,29.93,West,259,3.0,5.0,63,0.00,,,0.00,Wunderground v.1.15,2016-07-30 20:35:00,
2016-07-30 15:41:00,83.3,69.4,29.93,WSW,257,2.0,2.0,63,0.00,,,0.00,Wunderground v.1.15,2016-07-30 20:41:00,
2016-07-30 15:47:00,83.7,68.8,29.92,WSW,257,3.0,8.0,61,0.00,,,0.00,Wunderground v.1.15,2016-07-30 20:47:00,
2016-07-30 15:53:00,83.6,69.2,29.93,WSW,256,2.0,7.0,62,0.00,,,0.00,Wunderground v.1.15,2016-07-30 20:53:00,
2016-07-30 15:59:00,83.4,68.5,29.92,WSW,257,3.0,7.0,61,0.00,,,0.00,Wunderground v.1.15,2016-07-30 20:59:00,
2016-07-30 16:05:00,83.0,69.1,29.92,WSW,258,3.0,4.0,63,0.00,,,0.00,Wunderground v.1.15,2016-07-30 21:05:00,
2016-07-30 16:11:00,83.7,69.3,29.93,WSW,258,2.0,2.0,62,0.00,,,0.00,Wunderground v.1.15,2016-07-30 21:11:00,
2016-07-30 16:16:00,84.3,69.9,29.92,WSW,252,2.0,3.0,62,0.00,,,0.00,Wunderground v.1.15,2016-07-30 21:16:00,
2016-07-30 16:22:00,84.2,68.8,29.92,WSW,253,3.0,5.0,60,0.00,,,0.00,Wunderground v.1.15,2016-07-30 21:22:00,
2016-07-30 16:28:00,83.9,69.0,29.92,WSW,254,3.0,5.0,61,0.00,,,0.00,Wunderground v.1.15,2016-07-30 21:28:00,
2016-07-30 16:34:00,83.3,68.4,29.92,WSW,256,4.0,9.0,61,0.00,,,0.00,Wunderground v.1.15,2016-07-30 21:34:00,
2016-07-30 16:40:00,83.5,68.6,29.92,WSW,255,3.0,9.0,61,0.00,,,0.00,Wunderground v.1.15,2016-07-30 21:40:00,
2016-07-30 16:45:00,83.4,68.1,29.92,WSW,258,4.0,8.0,60,0.00,,,0.00,Wunderground v.1.15,2016-07-30 21:45:00,
2016-07-30 16:51:00,83.7,67.8,29.92,WSW,254,3.0,3.0,59,0.00,,,0.00,Wunderground v.1.15,2016-07-30 21:51:00,
2016-07-30 16:57:00,83.9,68.0,29.92,WSW,256,2.0,3.0,59,0.00,,,0.00,Wunderground v.1.15,2016-07-30 21:57:00,
2016-07-30 17:03:00,83.7,68.3,29.92,WSW,250,2.0,3.0,60,0.00,,,0.00,Wunderground v.1.15,2016-07-30 22:03:00,
2016-07-30 17:09:00,83.6,68.2,29.92,WSW,256,2.0,7.0,60,0.00,,,0.00,Wunderground v.1.15,2016-07-30 22:09:00,
2016-07-30 17:15:00,83.7,68.3,29.92,WSW,256,3.0,8.0,60,0.00,,,0.00,Wunderground v.1.15,2016-07-30 22:15:00,
2016-07-30 17:21:00,83.6,68.2,29.92,WSW,256,4.0,11.0,60,0.00,,,0.00,Wunderground v.1.15,2016-07-30 22:21:00,
2016-07-30 17:27:00,83.3,68.0,29.92,WSW,257,3.0,11.0,60,0.00,,,0.00,Wunderground v.1.15,2016-07-30 22:27:00,
2016-07-30 17:33:00,83.4,68.5,29.92,WSW,255,2.0,3.0,61,0.00,,,0.00,Wunderground v.1.15,2016-07-30 22:33:00,
2016-07-30 17:39:00,83.6,68.2,29.92,WSW,254,1.0,4.0,60,0.00,,,0.00,Wunderground v.1.15,2016-07-30 22:39:00,
2016-07-30 17:45:00,83.7,68.3,29.91,WSW,254,1.0,1.0,60,0.00,,,0.00,Wunderground v.1.15,2016-07-30 22:45:00,
2016-07-30 17:51:00,83.6,68.2,29.91,WSW,255,2.0,5.0,60,0.00,,,0.00,Wunderground v.1.15,2016-07-30 22:51:00,
2016-07-30 17:57:00,83.2,67.4,29.91,WSW,257,2.0,5.0,59,0.00,,,0.00,Wunderground v.1.15,2016-07-30 22:57:00,
2016-07-30 18:02:00,83.4,68.5,29.91,WSW,258,1.0,5.0,61,0.00,,,0.00,Wunderground v.1.15,2016-07-30 23:02:00,